Location: Unspecified
(0.0000°N, 0.0000°E)
Time: 00:58:17
(UTC+01:00)

Daily predictions for brighter satellites

Satellite Brightness Start Highest point End
(mag) Time Altitude Azimuth Time Altitude Azimuth Time Altitude Azimuth
CZ-3C R/B 4.5 03:38:09 33° NNE 03:38:09 33° NNE 03:59:36 10° ENE
Milstar 3 Cent rocket 4.4 03:48:38 37° SSW 03:48:38 37° SSW 03:54:11 10° SSE
ADEOS Rocket 4.4 03:50:36 42° SSE 03:50:36 42° SSE 03:55:38 10° S
Atlas Centaur 2 3.5 03:56:28 57° E 03:56:28 57° E 04:03:24 10° ENE
ATLAS 2AS CENTAUR RB 4.2 03:32:30 10° W 04:12:33 21° NE 04:13:36 10° ENE
Cosmos 1844 Rocket 3.6 04:24:41 42° SSE 04:24:41 42° SSE 04:28:21 10° SSE
ARIANE 5 R/B 3.6 04:35:06 55° SE 04:35:06 55° SE 04:41:56 10° E
ARIANE 5 DEB (SYLDA) 4.2 04:37:55 72° W 04:38:50 87° S 04:43:21 10° E
ARIANE 5 R/B 4.2 04:42:31 45° ENE 04:42:31 45° ENE 04:47:03 10° ENE
MOS 1 Rocket 4.5 04:44:45 32° SSE 04:44:45 32° SSE 04:47:12 10° S
Cosmos 1844 3.7 04:50:12 73° SW 04:50:12 73° SW 04:55:35 10° S
Delta 2 Rocket 4.3 04:47:17 34° SW 04:50:03 59° SSE 04:56:00 10° ENE
MOZ.5/SAFIR/RUBIN 5/SL-8 4.0 04:52:26 10° S 04:56:18 60° S 04:56:18 60° S
ASTEX 1 3.9 04:56:24 10° SSE 05:01:12 56° E 05:03:49 26° NNE
Cosmos 2278 Rocket 2.2 05:02:36 45° N 05:04:24 79° ENE 05:10:04 10° SSE
Feng Yun 1-1 Rocket 4.3 04:59:04 10° NNE 05:04:27 75° ESE 05:09:50 10° S
SL-16 R/B 4.0 04:59:42 10° SSW 05:02:27 20° SW 05:02:27 20° SW
SL-24 R/B - RUBIN 2 3.8 05:07:01 60° NNW 05:08:00 89° ENE 05:12:48 10° SSE
Cosmos 2151 Rocket 3.6 05:06:00 10° S 05:10:07 65° WSW 05:10:07 65° WSW
ADEOS II 2.3 05:13:04 46° WSW 05:13:04 46° WSW 05:17:28 10° SSW
SEDSat Delta rocket 4.5 05:07:43 11° SW 05:13:57 60° SE 05:20:39 10° ENE
Ariane 42P Rocket 3.2 05:16:53 49° WNW 05:18:12 78° N 05:35:24 10° E
BREEZE-M DEB 3.2 05:18:52 49° WNW 05:19:49 66° SW 05:23:08 10° SSE
Meteor 1-25 Rocket 4.5 05:14:25 10° SSW 05:19:58 47° W 05:21:41 37° NW
Cosmos 972 Rocket 3.7 05:19:05 46° NW 05:20:24 69° W 05:25:22 10° S
USA 229 DEB 3.6 05:16:02 10° SSW 05:22:50 64° WNW 05:29:37 10° NNE
USA 229 3.6 05:16:08 10° SSW 05:22:56 65° WNW 05:29:43 10° NNE
Cosmos 1975 Rocket 2.9 05:22:08 41° NNW 05:23:37 73° W 05:28:06 10° S
Meteor 1-11 Rocket 4.5 05:21:33 10° S 05:27:23 58° E 05:33:07 10° NNE
Ariane 44P Rocket 2.2 05:27:11 46° SW 05:27:39 53° S 05:33:15 10° E
Iridium 2 3.5 05:23:52 10° S 05:27:41 78° W 05:29:21 32° N
GPS 2-04 Rocket1 2.3 05:28:27 46° WSW 05:29:27 86° NW 05:33:14 10° NE
Cosmos 2181 Rocket 3.9 05:23:53 10° N 05:30:08 79° W 05:36:22 10° S
OAO 3 Rocket 3.1 05:28:34 20° SW 05:31:57 83° NW 05:36:52 10° NE
Cosmos 1602 3.9 05:31:26 10° S 05:35:21 73° E 05:39:17 10° N
Okean 1 Rocket 3.1 05:35:10 10° S 05:39:37 80° E 05:44:01 10° N
CZ-2C R/B 3.8 05:36:35 10° S 05:41:08 55° WSW 05:44:10 20° NNW
BLOCK DM-SL R/B 3.3 05:39:15 18° WSW 05:42:16 56° S 05:47:01 10° E
CZ-3 R/B 4.1 05:18:35 10° W 05:42:23 27° NW 05:50:12 10° NNE
Atlas Centaur 2 3.5 05:39:15 19° W 05:45:01 42° NNW 05:52:36 10° NE
Ariane H10-3 3.1 05:44:12 32° NW 05:45:05 43° N 05:50:21 10° E
H-2A R/B 3.7 04:43:37 10° WSW 05:45:22 76° NW 05:50:35 10° NE
ATLAS 2A CENTAUR R/B 4.3 05:23:58 10° WSW 05:47:19 78° SSE 05:51:47 10° ENE
GOES 2 Rocket 3.9 05:45:14 21° NW 05:50:05 73° NNE 05:55:24 10° ESE
Cosmos 1812 2.8 05:46:56 10° N 05:50:46 80° E 05:54:39 10° S
OAO 2 Rocket 3.3 05:56:13 19° WNW 05:59:49 71° SW 06:04:51 10° SE
Hubble Space Telescope 3.8 05:59:03 10° S 06:00:48 12° SSE 06:02:33 10° SE
Cosmos 1269 Rocket 4.1 05:55:56 10° S 06:01:13 82° E 06:06:29 10° NNE
Cosmos 1300 Rocket 4.2 05:58:16 10° SSW 06:02:17 33° W 06:06:16 10° NNW
Meteor 2-13 Rocket 4.4 05:56:28 10° SSW 06:02:33 67° W 06:08:39 10° N
NOAA 6 4.4 06:01:49 10° N 06:06:35 40° WNW 06:11:24 10° SSW
Cosmos 962 Rocket 4.4 06:00:49 10° S 06:06:56 85° W 06:13:06 10° N
Okean-O 4.3 06:08:08 13° WNW 06:08:23 13° WNW 06:10:29 10° WSW
Sea Lan Dem Rocket 2.4 06:07:58 12° W 06:11:12 86° N 06:18:56 10° E
Thor Agena Rocket 3.5 06:06:40 10° S 06:11:42 68° WSW 06:16:41 10° NNW
Cosmos 1943 4.5 06:08:26 10° WSW 06:12:06 18° WNW 06:15:47 10° NNW
Cosmos 1461 3.2 06:08:59 10° SW 06:13:27 52° WNW 06:17:44 10° N
Okean 1 3.2 06:09:42 10° N 06:13:41 70° W 06:17:39 10° S
Cosmos 2341 Rocket 4.1 06:14:22 10° SSW 06:20:38 62° W 06:26:50 10° N
Cosmos 1346 Rocket 2.8 06:17:14 10° N 06:21:12 74° W 06:25:14 10° S
BLOCK-DM UPPERSTAGE 3.4 06:18:41 10° W 06:22:31 88° S 06:28:28 10° E
Ariane H10+ 2.6 06:18:47 10° W 06:26:35 41° SSW 06:29:32 10° ESE
Cosmos 1048 Rocket 4.1 06:22:02 10° SSW 06:27:01 54° WNW 06:31:59 10° N
Cosmos 1455 Rocket 4.2 06:26:12 10° SSE 06:30:24 49° E 06:34:33 10° NNE
